CAPE
1 0 1 1 1 0 0 0 0 0 0 0 0 0 0 0 0 0 0 0 0 0 0 0 0 0 65 513 904 1054 941 975 739 473 287 221 148 5 1 0 0 0 0 0
1 0 0 0 0 2 0 1 0 0 0 0 0 0 0 0 0 0 0 0 0 0 0 0 0 0 0 133 664 1115 1061 919 723 505 467 274 167 21 0 0 0 0 0 0
5 0 0 0 5 7 1 0 5 2 3 4 2 0 0 0 0 0 0 0 0 0 0 0 0 0 0 6 368 800 1159 1028 791 633 502 381 158 50 1 1 1 0 0 0
9 0 0 5 8 20 5 1 4 5 14 12 8 0 0 0 0 0 0 0 0 0 0 0 0 0 0 0 79 478 922 1110 951 706 484 380 275 173 41 1 0 0 0 0
0 4 6 2 0 27 0 0 0 23 26 37 1 7 0 0 0 0 0 0 0 0 0 0 0 0 0 0 0 281 621 998 1025 835 718 535 392 290 218 1 0 0 0 0
0 0 3 0 0 12 8 34 40 34 18 13 0 34 0 0 0 0 0 0 0 0 0 0 0 0 0 0 0 14 539 834 1019 866 847 642 518 434 314 50 0 0 0 0
1 2 0 11 39 37 40 40 14 4 10 0 0 20 0 0 0 0 0 0 0 0 0 0 0 0 0 0 0 0 270 693 978 905 760 712 610 565 393 77 0 0 0 0
1 0 1 7 7 26 21 14 8 4 2 0 0 5 0 0 0 0 0 0 0 0 0 0 0 0 0 0 0 0 43 435 876 899 811 767 647 551 412 128 0 0 0 0
0 6 0 0 0 9 1 2 0 9 0 0 0 0 0 0 0 0 0 0 0 0 0 0 0 0 0 0 0 0 50 505 765 839 874 789 663 568 428 134 0 0 0 0
0 0 0 1 1 0 0 0 0 0 0 4 4 0 0 0 0 0 0 0 0 0 0 0 0 0 0 0 40 171 261 697 900 936 861 776 701 610 403 18 0 0 0 0
0 0 0 1 0 0 0 0 0 0 0 0 0 0 0 0 0 0 0 0 0 0 0 0 0 0 0 0 21 286 638 853 995 978 910 709 558 324 51 0 0 0 0 0
6 0 0 0 0 0 0 0 0 0 0 0 0 0 0 0 0 0 0 0 0 0 0 0 0 0 0 0 0 44 365 703 847 767 713 455 192 0 0 0 0 0 0 0
1 0 0 0 0 0 0 0 0 0 0 0 0 0 0 0 0 0 0 0 0 0 0 0 0 0 0 0 0 0 91 249 313 375 292 127 4 1 2 1 0 0 0 0
1 0 0 0 0 0 0 0 0 0 0 0 0 0 0 0 0 0 0 0 0 0 0 0 0 0 0 0 0 0 0 0 9 31 26 0 1 0 0 0 0 0 0 0
2 0 0 0 0 0 0 0 3 0 0 0 0 0 0 0 0 0 0 0 0 0 0 0 0 0 0 0 0 1 1 0 0 0 0 1 0 0 0 1 0 0 0 0
5 0 0 0 0 0 0 0 0 0 0 0 0 0 0 0 0 0 0 0 0 0 0 0 0 0 0 0 0 3 1 2 0 0 0 0 0 4 3 2 1 0 0 0
0 0 0 0 0 0 0 0 0 0 0 0 0 0 0 0 0 0 0 0 0 0 0 0 0 0 0 0 4 0 0 0 1 0 0 0 0 0 0 0 2 1 0 0
0 0 1 0 0 0 0 0 0 0 0 0 0 0 0 0 0 0 0 0 0 0 0 0 0 0 0 0 0 0 0 1 1 1 0 0 0 0 1 0 0 0 1 1
0 0 0 0 0 0 0 0 0 0 0 0 0 0 0 0 0 0 0 0 0 0 0 0 0 0 0 0 3 0 0 0 0 0 0 0 0 0 0 0 0 0 0 1
1 1 0 0 0 0 0 0 0 0 0 0 0 0 0 0 0 0 0 0 0 0 0 0 0 0 1 0 3 9 4 0 0 0 0 0 2 3 1 0 2 2 0 0
0 0 0 0 0 0 0 0 0 0 0 0 0 0 0 0 0 0 0 0 0 0 1 0 0 0 0 0 5 0 15 5 0 0 0 0 1 0 0 1 0 0 1 1
0 0 0 0 0 0 0 0 0 0 0 0 0 0 0 0 0 0 0 0 0 0 1 0 0 0 0 0 12 3 1 5 0 0 0 0 0 0 0 0 1 0 0 0
0 0 0 0 0 0 0 0 0 0 0 0 0 0 0 0 0 0 0 0 1 0 1 0 1 3 0 0 0 3 0 0 0 0 0 0 0 0 0 0 0 0 0 0
0 0 2 0 0 0 0 0 0 0 0 0 0 0 0 0 0 0 0 3 2 0 2 0 8 0 0 0 0 0 0 0 0 0 0 0 0 0 0 0 0 0 1 1
0 0 0 0 0 0 0 0 0 0 0 0 0 0 0 0 0 0 0 1 2 4 2 0 1 0 0 0 1 3 2 1 0 1 1 1 0 0 0 0 0 0 1 1
0 0 0 0 0 0 0 0 0 0 0 0 0 0 0 0 0 0 0 1 2 3 4 1 2 0 1 2 1 2 3 3 1 0 1 1 0 1 0 0 1 1 0 0
CIN
0 0 0 -0 0 0 0 0 0 0 0 0 0 0 0 0 0 0 0 0 0 0 0 0 0 0 -564 -388 -330 -305 -280 -258 -225 -269 -333 -372 -400 -375 0 0 0 0 0 0
-6 0 0 0 0 0 0 0 0 -0 0 0 0 0 0 0 0 0 0 0 0 0 0 0 0 0 -96 -535 -407 -364 -377 -336 -339 -360 -389 -401 -439 -456 0 -0 0 0 0 0
-13 0 0 -6 -0 0 0 0 0 -0 -0 -6 -5 0 0 0 0 0 0 0 0 0 0 0 0 0 0 -122 -470 -428 -403 -384 -401 -422 -365 -302 -322 -298 0 0 0 0 0 0
-1 -2 0 -0 -1 0 0 -0 -0 0 0 -0 -3 0 0 0 0 0 0 0 0 0 0 0 0 0 0 0 -488 -439 -461 -392 -401 -410 -369 -370 -425 -406 -499 -197 0 0 0 0
0 -1 -1 -0 0 -14 0 0 -0 -1 -0 -1 -2 -2 0 0 0 0 0 0 0 0 0 0 0 0 0 0 0 -438 -459 -399 -398 -379 -373 -420 -400 -419 -389 -149 0 0 0 0
-0 -1 -2 0 0 -7 -2 -2 -4 -8 -6 -5 0 -1 0 0 0 0 0 0 0 0 0 0 0 0 0 0 0 -494 -393 -398 -356 -388 -386 -422 -448 -416 -371 -436 0 0 0 0
-1 -3 -1 -4 -1 -5 -4 -1 -2 -3 -1 0 0 -2 0 0 0 0 0 0 0 0 0 0 0 0 0 0 0 0 -380 -398 -367 -356 -369 -392 -428 -420 -448 -482 0 0 0 0
-0 -0 -3 -3 -3 -1 -3 -2 -0 -1 -2 0 0 -5 0 0 0 0 0 0 0 0 0 0 0 0 0 0 0 0 -126 -356 -344 -355 -389 -391 -392 -395 -424 -474 0 0 0 0
0 -1 0 0 0 -1 -1 -2 -8 -13 0 -2 0 0 -0 0 0 0 0 0 0 0 0 0 0 0 0 0 0 0 -371 -345 -349 -363 -357 -371 -390 -378 -429 -518 0 0 0 0
0 0 0 0 0 0 0 0 0 -0 -0 -1 -2 0 0 0 0 0 0 0 0 0 0 0 0 0 0 0 -544 -446 -394 -285 -241 -198 -205 -251 -291 -326 -346 -372 0 0 0 0
0 0 0 0 0 0 0 0 0 0 0 0 0 0 0 0 0 0 0 0 0 0 0 0 0 0 0 0 -347 -339 -242 -207 -179 -149 -166 -196 -223 -298 -315 0 0 0 0 0
-2 0 0 0 0 -0 0 0 0 0 0 0 0 0 0 0 0 0 0 0 0 0 0 0 0 0 0 0 0 -349 -237 -182 -179 -191 -181 -253 -348 -23 0 0 0 0 0 0
-4 0 0 0 0 0 0 0 0 0 0 0 0 0 0 0 0 0 0 0 0 0 0 0 0 0 0 0 0 0 -278 -227 -208 -236 -275 -312 -348 0 0 0 0 0 0 0
-0 0 0 0 0 -5 0 0 0 0 0 0 0 0 0 0 0 0 0 0 0 0 0 0 0 0 0 0 0 0 0 0 -128 -249 -276 0 0 0 0 0 0 0 0 0
-3 -1 0 0 0 0 0 0 -12 0 0 0 0 0 0 0 0 0 0 0 0 0 0 0 0 0 0 0 0 0 0 0 0 0 0 0 0 0 0 0 0 0 0 0
-24 0 -0 0 0 0 -12 0 0 0 0 0 0 0 0 0 0 0 0 0 0 0 0 0 0 0 0 0 0 -314 0 0 0 0 0 0 0 0 0 0 0 0 0 0
0 0 -0 0 0 0 0 0 0 0 0 0 0 0 0 0 0 0 0 0 0 0 0 0 0 0 0 0 -177 0 0 0 0 0 0 0 0 0 0 0 0 0 0 0
0 -1 -1 0 0 0 0 0 0 0 0 0 0 0 0 0 0 0 0 0 0 0 0 0 0 0 0 0 -1 0 0 0 0 0 0 0 0 0 0 0 0 0 0 0
0 0 -3 -0 0 0 0 0 0 0 0 0 0 0 0 0 0 0 0 0 0 0 0 0 0 0 -1 0 -13 0 0 0 0 0 0 0 0 0 0 0 0 0 0 0
0 -2 -0 -0 -0 0 0 0 0 0 0 0 0 0 0 0 0 0 0 0 0 0 0 0 0 0 0 -4 -21 -5 -10 0 0 0 0 0 0 0 0 0 0 0 0 0
0 0 0 0 -0 0 0 0 0 0 0 0 0 0 0 0 0 0 0 0 0 -0 0 -0 0 0 0 0 -23 0 -8 -11 -20 0 0 0 0 0 0 0 0 0 0 0
0 0 0 0 0 -4 0 0 0 0 0 0 0 0 0 0 0 0 0 0 0 0 0 0 0 0 0 -9 -8 -34 -7 -25 0 0 0 0 0 0 0 0 0 0 0 0
0 0 0 0 0 0 0 0 0 0 0 0 0 0 0 0 0 0 0 0 0 0 0 0 0 0 0 -5 0 -37 0 0 0 0 0 0 0 0 0 0 0 0 0 0
0 0 -17 0 0 0 0 0 0 0 0 0 0 0 0 0 0 0 0 0 0 0 0 0 -1 0 0 0 0 0 0 0 0 0 0 0 0 0 0 0 0 0 0 0
0 0 0 0 0 0 0 0 0 0 0 0 0 0 0 0 0 0 0 0 0 0 -0 0 0 0 0 0 0 0 0 0 0 0 0 0 0 0 0 0 0 0 0 0
0 0 0 0 0 0 0 0 0 0 0 0 0 0 0 0 0 0 0 0 0 0 0 0 0 0 0 0 0 0 0 0 0 0 0 0 0 0 0 0 0 0 0 0
Wind_Speed
22 28 31 26 26 29 35 38 37 35 31 35 40 59 43 47 49 40 39 45 39 35 36 37 22 16 18 20 22 24 24 26 23 22 21 21 22 22 23 23 23 22 21 20
32 40 32 30 31 32 34 37 37 38 33 35 46 62 59 46 54 46 40 36 37 37 39 37 26 18 17 20 22 23 26 25 26 25 26 23 24 24 23 24 25 24 24 23
41 42 30 32 34 35 35 37 38 39 34 33 41 65 60 53 39 41 33 27 29 30 39 43 36 22 19 20 23 25 26 27 27 26 24 24 23 24 23 22 23 25 26 26
48 49 46 41 40 33 43 32 36 40 38 42 27 64 65 51 43 32 30 30 30 35 38 40 41 37 27 25 24 26 27 28 29 28 27 28 27 28 26 27 26 27 27 26
51 41 38 42 43 31 40 32 34 36 39 40 39 40 72 39 40 34 30 29 29 32 35 37 40 41 38 30 27 29 30 32 31 31 32 31 31 30 28 27 26 26 27 27
51 41 40 38 35 34 35 39 36 35 39 47 44 35 80 48 38 34 32 34 35 37 38 40 40 40 43 39 31 30 30 32 33 33 33 34 33 31 30 29 29 28 28 29
46 49 42 39 39 30 33 38 45 45 47 53 49 37 48 41 33 36 36 36 38 39 42 44 45 46 46 45 39 33 34 34 32 34 35 35 35 34 33 32 30 29 28 28
45 50 42 38 46 40 37 36 44 51 52 52 45 45 48 43 28 27 28 31 36 39 40 42 43 44 47 48 45 37 35 35 34 35 37 36 36 37 36 34 32 32 31 29
38 42 29 27 30 35 44 48 38 47 50 51 45 38 29 25 25 26 30 32 37 38 39 41 42 41 42 44 45 44 38 37 36 35 35 35 37 36 36 35 34 32 30 28
29 38 27 24 24 21 30 25 35 37 53 60 49 47 41 34 35 33 36 37 38 37 39 41 42 42 43 42 41 38 36 37 36 36 36 36 37 36 36 36 35 33 30 29
26 29 27 27 23 24 26 29 28 33 34 41 41 39 28 27 27 33 37 39 40 41 42 42 43 43 42 40 36 34 33 33 34 34 34 35 35 35 34 34 34 34 32 29
26 30 38 38 31 30 31 34 33 41 43 39 40 42 25 24 27 35 39 40 41 42 43 43 44 42 43 40 37 32 29 29 29 30 32 32 31 32 33 32 32 35 36 28
29 32 39 36 31 31 36 33 32 35 38 46 48 43 26 29 36 41 41 42 44 44 45 47 45 42 42 39 35 32 27 29 29 29 31 31 32 31 31 30 31 28 32 26
28 33 35 39 35 30 35 35 33 34 41 42 42 43 48 44 47 48 47 45 42 41 45 47 45 43 41 37 33 30 27 26 27 27 30 32 30 30 30 30 28 22 20 19
26 38 36 39 38 36 36 35 33 34 35 41 44 44 50 46 47 47 44 44 45 45 47 45 45 43 41 37 31 27 26 25 23 24 28 30 30 32 31 30 26 22 20 19
28 38 34 43 39 39 44 41 42 40 41 42 43 49 45 41 43 47 48 49 49 48 47 47 46 42 40 36 31 26 27 26 24 19 20 20 24 32 30 28 23 24 21 18
32 34 36 45 36 37 43 42 38 37 36 37 44 45 41 46 47 48 50 49 49 48 45 46 47 44 40 35 33 28 23 21 21 19 17 10 15 22 19 19 14 17 19 18
29 29 30 38 32 43 32 25 23 28 32 34 37 40 41 44 46 49 47 48 47 43 46 48 45 43 36 35 28 21 16 16 14 14 14 9 7 5 7 8 9 10 14 15
23 25 29 33 34 33 31 27 27 29 35 31 36 38 39 40 44 47 35 36 42 45 46 46 43 39 33 30 21 20 16 11 9 10 9 8 8 4 1 7 9 9 9 13
16 20 25 26 31 35 28 21 20 22 39 24 26 34 37 38 46 49 45 43 47 46 44 44 41 34 30 24 14 14 14 13 10 7 7 7 6 3 3 1 1 3 4 5
22 24 29 31 34 33 24 20 20 33 33 23 28 33 36 39 38 45 50 52 49 46 46 44 40 40 35 21 17 13 20 14 9 7 6 7 8 7 3 1 1 1 5 4
25 26 28 28 32 36 17 19 27 26 27 28 30 32 35 38 41 42 48 53 51 52 49 51 41 38 32 19 17 20 18 11 6 4 5 5 6 6 6 4 3 0 3 6
19 16 17 16 19 16 14 19 19 22 26 28 29 32 34 36 39 41 48 49 50 50 49 39 23 24 21 20 16 15 16 12 9 8 7 6 4 5 5 4 5 3 4 8
13 13 15 16 19 20 23 26 27 26 31 36 38 36 38 45 44 44 45 43 43 38 32 19 14 16 15 14 11 10 12 11 10 8 6 6 5 5 6 5 6 5 5 8
16 19 18 21 25 29 27 27 32 36 38 39 36 34 42 44 43 42 39 38 39 29 16 1 5 11 14 10 11 11 6 6 10 8 7 3 1 4 6 7 7 7 8 8
17 18 21 25 27 29 31 33 37 40 40 38 39 41 41 39 36 36 37 32 27 18 11 4 3 5 9 9 7 7 6 5 5 4 4 3 2 3 5 2 4 6 6 8
Wind_Direction
278 278 270 270 265 274 284 287 288 291 294 293 291 262 289 283 281 289 289 280 284 286 284 283 285 248 233 233 230 221 220 213 221 221 220 222 221 224 229 227 229 225 225 223
279 262 275 276 273 272 274 277 277 286 291 294 291 263 267 286 273 283 288 288 286 285 283 285 288 269 247 233 226 223 214 217 215 218 216 229 226 228 233 239 234 234 230 228
269 265 282 273 270 269 269 268 279 283 291 288 294 267 265 276 290 285 286 283 286 286 284 279 283 278 257 245 234 230 222 221 218 217 227 239 244 246 241 235 230 224 224 225
272 277 272 271 268 266 274 271 277 280 284 285 285 276 266 284 288 291 294 293 291 288 286 285 280 283 276 261 247 237 234 229 228 229 232 229 232 233 236 226 232 234 230 230
255 274 268 265 260 263 271 273 276 278 278 281 275 281 262 289 290 294 298 301 302 296 294 292 285 281 284 280 259 252 247 241 237 234 235 235 237 240 245 243 241 238 234 232
267 272 270 270 272 261 269 275 278 279 279 276 265 272 268 284 291 294 297 298 298 296 295 293 292 288 283 284 275 259 251 246 238 235 233 234 235 242 244 243 240 237 238 236
266 264 268 269 273 267 263 267 273 274 270 271 278 272 272 286 297 298 296 297 298 297 294 294 292 289 287 282 280 266 255 251 244 239 236 234 235 239 241 242 241 239 239 239
264 271 265 261 256 266 260 258 265 273 272 277 278 272 272 293 296 300 304 306 304 301 300 296 294 293 289 285 280 272 259 253 250 245 239 236 239 244 246 244 243 242 239 238
276 264 282 287 270 256 262 259 265 274 275 279 276 279 286 293 298 302 304 309 308 306 305 303 298 297 296 291 285 276 263 257 253 247 244 240 242 238 242 244 244 243 242 240
285 275 280 281 280 277 265 263 263 270 275 272 275 274 276 283 286 293 299 304 308 310 306 303 300 299 299 300 290 284 270 263 260 256 252 250 248 246 249 249 246 243 243 244
286 278 281 275 283 279 276 271 271 279 282 284 280 277 282 289 291 295 300 303 301 303 304 303 300 301 304 302 300 290 280 270 264 259 255 253 251 251 249 246 245 243 245 245
281 280 279 278 283 283 276 276 279 276 276 278 283 281 292 292 296 300 302 302 300 303 304 300 302 307 299 299 298 299 291 278 268 261 257 255 250 247 244 243 246 242 245 243
278 280 278 281 281 280 277 279 280 280 279 274 275 278 293 292 293 299 299 298 298 300 300 297 298 299 298 300 296 299 298 283 273 267 262 257 253 247 243 246 248 242 246 240
290 278 276 274 281 282 277 280 279 276 276 277 273 280 283 289 292 294 296 297 300 302 299 293 294 297 299 305 299 303 302 285 276 274 267 260 253 249 247 247 246 243 224 230
287 279 282 280 284 284 284 283 279 275 275 278 282 285 285 293 293 296 298 298 298 297 291 294 294 297 296 299 302 298 300 290 275 282 271 267 260 252 248 247 242 239 240 239
286 282 287 283 286 281 282 281 279 277 278 279 282 284 291 295 299 296 295 296 295 294 297 296 292 293 291 293 294 293 288 286 281 279 277 272 283 253 251 245 234 245 242 238
286 285 284 281 287 286 281 278 275 277 276 279 282 288 294 294 294 296 297 297 295 291 294 294 290 283 281 287 283 279 288 292 283 284 291 305 282 262 250 261 249 242 232 237
286 287 287 285 286 278 289 299 291 281 281 287 290 293 297 298 298 297 301 297 294 291 292 290 293 289 285 283 284 278 287 295 301 296 298 315 296 270 260 266 262 256 240 233
280 286 288 283 281 287 291 291 290 287 286 292 295 298 300 304 303 301 307 309 301 296 295 291 290 291 287 280 279 274 276 284 298 300 296 319 313 311 298 259 269 261 242 234
288 284 283 289 286 284 290 299 302 303 291 300 303 305 306 310 303 300 308 307 302 297 293 288 285 286 285 280 267 270 266 268 284 297 304 321 336 1 67 79 271 274 212 235
294 291 280 282 285 290 298 300 302 291 297 304 307 307 308 307 308 308 305 301 302 296 289 283 277 268 268 271 254 247 267 273 273 283 288 287 293 295 310 286 64 310 296 280
298 295 290 287 285 288 303 304 294 302 303 306 310 312 313 312 311 311 306 302 299 292 287 271 268 264 261 258 247 243 251 255 251 263 272 280 294 294 294 288 302 17 289 291
312 321 316 311 304 317 326 314 317 314 309 313 314 315 316 316 315 312 302 302 298 292 278 276 255 252 247 250 229 240 243 250 248 248 255 267 277 287 280 291 294 305 315 285
329 332 322 324 316 313 316 311 311 310 306 304 303 309 309 296 288 289 294 292 296 287 283 273 221 223 233 249 227 222 243 246 240 238 246 251 250 281 287 286 282 281 286 285
321 315 318 312 310 309 311 311 310 303 302 306 311 312 301 291 281 287 287 285 286 269 284 12 194 210 223 226 234 229 213 205 225 228 233 251 331 267 272 271 272 290 297 304
319 316 314 312 314 314 313 315 312 307 306 308 306 302 301 281 267 280 287 285 271 279 278 322 209 190 184 176 211 223 216 183 189 216 239 255 278 267 266 309 6 350 4 351